This is the latest recevied weather packets stored in our database for station/object VE6HFD-WX. If no packets are shown the sender has not sent any weather packets the latest 10 day(s).
| Time | Temp. | Humidity | Pressure | Rain* | Wind** | Luminosity | Snow |
|---|---|---|---|---|---|---|---|
| 1777862465 | 12.22° C | 43% | 1008.4 hPa | 0 mm | - | - | - |
| 1777862165 | 12.22° C | 43% | 1008.3 hPa | 0 mm | - | - | - |
| 1777861835 | 12.22° C | 42% | 1008.2 hPa | 0 mm | - | - | - |
| 1777861505 | 12.22° C | 41% | 1008 hPa | 0 mm | - | - | - |
| 1777861205 | 12.78° C | 40% | 1008.1 hPa | 0 mm | - | - | - |
| 1777860905 | 12.78° C | 40% | 1007.9 hPa | 0 mm | - | - | - |
| 1777860605 | 12.78° C | 39% | 1007.7 hPa | 0 mm | - | - | - |
| 1777860275 | 13.33° C | 38% | 1007.8 hPa | 0 mm | - | - | - |
| 1777859975 | 13.33° C | 37% | 1007.7 hPa | 0 mm | - | - | - |
| 1777859645 | 13.33° C | 38% | 1007.7 hPa | 0 mm | - | - | - |
| 1777859315 | 13.33° C | 39% | 1007.5 hPa | 0 mm | - | - | - |
| 1777859015 | 13.33° C | 38% | 1007.4 hPa | 0 mm | - | - | - |
| 1777858715 | 13.89° C | 37% | 1007.3 hPa | 0 mm | - | - | - |
| 1777858415 | 13.89° C | 38% | 1007.2 hPa | 0 mm | - | - | - |
| 1777858085 | 13.89° C | 37% | 1007.1 hPa | 0 mm | - | - | - |
| 1777857755 | 13.89° C | 36% | 1007 hPa | 0 mm | - | - | - |
| 1777857425 | 13.89° C | 36% | 1006.9 hPa | 0 mm | - | - | - |
| 1777857125 | 13.89° C | 37% | 1006.9 hPa | 0 mm | - | - | - |
| 1777856825 | 13.89° C | 38% | 1006.9 hPa | 0 mm | - | - | - |
| 1777856495 | 13.89° C | 37% | 1006.7 hPa | 0 mm | - | - | - |
| 1777856165 | 14.44° C | 38% | 1006.7 hPa | 0 mm | - | - | - |
| 1777855835 | 13.89° C | 36% | 1006.7 hPa | 0 mm | - | - | - |
| 1777855535 | 14.44° C | 37% | 1006.7 hPa | 0 mm | - | - | - |
| 1777855205 | 14.44° C | 37% | 1006.6 hPa | 0 mm | - | - | - |
| 1777854928 | 14.44° C | 36% | 1006.8 hPa | 0 mm | - | - | - |
* Rain latest hour (hover to see other rain measurements)
** Current wind speed in m/s (hover to see current wind gust speed)